Tracking 18665 objects as of 24-June-2017
HD Live streaming from Space Station
objects crossing your sky now

TRITON 1

Track TRITON 1 now!
10-day predictions
TRITON 1 is classified as:


NORAD ID: 39427
Int'l Code: 2013-066M
Perigee: 596.3 km
Apogee: 756.3 km
Inclination: 97.6 °
Period: 98.1 minutes
Semi major axis: 7047 km
RCS: Unknown
Launch date: November 21, 2013
Source: United Kingdom (UK)
Launch site: Orenburg, Russia (OREN)
Uplink (MHz): 435.xxx
Downlink (MHz): 145.818/145.823
Beacon (MHz): 2408.000
Mode: 1200bps RC-BPSK CW
Call sign: TRIV0 TRIV1
Status: Inactive

Your satellite tracking list
Your tracking list is empty





NASA's NSSDC Master Catalog

Two Line Element Set (TLE):
1 39427U 13066M   17174.94057072 +.00000210 +00000-0 +41962-4 0  9994
2 39427 097.6372 189.8441 0113501 327.8449 031.5868 14.67462058191841
Source of the keplerian elements: Caltech